[[{"header":{"parameterUnit":"m.s-1","parameterCategory":1,"la1":30.2991,"la2":30.254,"lo1":-89.0895,"lo2":-89.0444,"dy":0.0017,"dx":0.0017,"nx":28,"ny":28,"refTime":"2025-07-22T09:00:00:Z","depth":0,"parameterNumber":2,"parameterNumberName":"U-component_of_WINDS"},"data":[0,0,0,0,0,0,0,0,0,0,0,0,0,0,0,0,0,0,0,0,0,0,0,0,0,0,0,0,0,0,0,0,0,0,0,0,0,0,0,0,0,0,0,0,0,0,0,0,0,0,0,0,0,0,0,0,0,0,0.0981,0.0984,0,0.1223,0.1226,0.1229,0.136,0.1361,0.1361,0.1361,0.1618,0.1624,0.1631,0,0,0,0,0,0,0,0,0,0,0,0,0,0.0646,0.0651,0.0981,0.0984,0.0987,0.1223,0.1226,0.123,0.136,0.1361,0.1361,0.1361,0.1616,0.1623,0.1631,0,0,0,0,0,0,0,0,0,0,0,0,0,0.083,0.0653,0.0981,0.1081,0.1092,0.1222,0.1226,0.123,0.136,0.1361,0.1361,0.1361,0.1613,0.1622,0.1632,0.1684,0,0,0.1662,0.1666,0,0,0,0,0,0,0,0,0.0819,0.0842,0.1063,0.1074,0.1087,0.1262,0.1202,0.1383,0.136,0.1259,0.1361,0.1362,0.15,0.1519,0.1563,0.1696,0.1707,0.1663,0.1669,0.1673,0.1676,0,0,0,0,0,0,0,0.0806,0.0832,0.1077,0.1066,0.1081,0.1118,0.1145,0.1237,0.1374,0.1267,0.1278,0.1304,0.1506,0.1554,0.157,0.1711,0.1663,0.1672,0.1678,0.1681,0.1907,0.1907,0,0,0,0,0,0,0.0776,0.0821,0.107,0.1084,0.0951,0.1123,0.1153,0.1205,0.1373,0.1399,0.1303,0.1309,0.1537,0.1559,0.158,0.1655,0.1673,0.1682,0.1688,0.1907,0.1907,0.1907,0,0,0,0,0,0,0.0768,0.0797,0.106,0.0956,0.0992,0.1129,0.1186,0.121,0.1257,0.14,0.1426,0.1325,0.1538,0.1566,0.1658,0.1666,0.1687,0.1696,0.1907,0.1907,0.1907,0.1804,0,0,0,0,0,0,0.0758,0.0793,0.081,0.0955,0.0997,0.1129,0.1187,0.1214,0.1273,0.1283,0.1428,0.1453,0.154,0.1643,0.1668,0.168,0.1703,0.1907,0.1907,0.1907,0.1807,0.18,0.1794,0,0,0,0,0,0.0745,0.0772,0.081,0.0839,0.102,0.1129,0.1154,0.1251,0.1273,0.1294,0.1387,0.1448,0.1662,0.1651,0.1681,0.1695,0.1907,0.1907,0.1907,0.181,0.1802,0.1795,0,0,0,0,0,0,0.0625,0.0792,0.0837,0.091,0.1004,0.1151,0.1179,0.1239,0.1331,0.1336,0.1458,0.1489,0.1571,0.1644,0.1629,0.1759,0.1791,0.1797,0.1707,0.1701,0.1694,0.1675,0.1712,0,0,0,0,0,0.0607,0.0677,0.0821,0.0872,0.0917,0.104,0.1091,0.1159,0.1263,0.1304,0.1404,0.1505,0.1597,0.1653,0.1744,0.182,0.1857,0.1846,0.184,0.1834,0.1837,0.1889,0.1887,0.1908,0.1908,0.1908,0,0,0.0569,0.067,0.0707,0.0851,0.0931,0.1006,0.1073,0.1147,0.1206,0.1316,0.1409,0.1487,0.1609,0.1694,0.1737,0.1757,0.1841,0.1834,0.1828,0.1835,0.1889,0.1887,0.1885,0.1908,0.1908,0.1908,0,0,0.054,0.0622,0.0675,0.0756,0.0878,0.0961,0.0974,0.1114,0.117,0.1265,0.1351,0.1426,0.1578,0.1663,0.1726,0.1739,0.18,0.1766,0.1732,0.1781,0.1779,0.1779,0.1786,0.1787,0.1769,0.1769,0.1769,0,0.0478,0.059,0.0695,0.0767,0.083,0.0934,0.0992,0.1067,0.1214,0.1257,0.1278,0.1476,0.1565,0.1675,0.1678,0.1725,0.1748,0.1747,0.1771,0.1771,0.1772,0.178,0.1782,0.1764,0.1765,0.1765,0.1766,0,0.0511,0.0589,0.0618,0.0756,0.0823,0.0887,0.1007,0.1064,0.1129,0.1212,0.1312,0.1424,0.1542,0.1575,0.1638,0.1696,0.1705,0.1746,0.1781,0.1763,0.1773,0.1777,0.1757,0.1759,0.176,0.1762,0,0,0.0404,0.0605,0.0614,0.068,0.0827,0.0891,0.0965,0.1079,0.1127,0.1228,0.1295,0.1426,0.1468,0.154,0.1616,0.1659,0.1667,0.1697,0.1702,0.1689,0.1743,0.1709,0.171,0.1711,0.1712,0.1712,0.1733,0,0.0396,0.0526,0.0627,0.0722,0.0798,0.0903,0.0969,0.1069,0.1151,0.1232,0.1325,0.1416,0.1463,0.1508,0.1555,0.1655,0.1679,0.1656,0.1778,0.1781,0.1741,0.1715,0.1678,0.1691,0.1737,0.1738,0.1739,0,0.04,0.0496,0.0598,0.0743,0.0779,0.0834,0.0951,0.1026,0.1146,0.1203,0.1287,0.1367,0.1456,0.1486,0.1614,0.1595,0.1653,0.1711,0.1715,0.1728,0.1756,0.1728,0.1698,0.1699,0.1746,0.1745,0.1744,0,0.0313,0.0469,0.0551,0.0605,0.0776,0.0814,0.0888,0.1008,0.1072,0.1177,0.1222,0.1336,0.1399,0.1489,0.1601,0.1611,0.1719,0.1756,0.1773,0.177,0.1787,0.1784,0.1764,0.1826,0.1826,0.1826,0.1825,0,0.029,0.0349,0.0515,0.0565,0.0637,0.0757,0.0826,0.091,0.1018,0.1091,0.1192,0.1259,0.1403,0.1491,0.1581,0.1675,0.1703,0.1755,0.1778,0.1745,0.1738,0.1782,0.1784,0.1826,0.1826,0.1826,0.1826,0,0.0202,0.0315,0.0413,0.0569,0.061,0.0656,0.0792,0.0849,0.094,0.1032,0.1061,0.1205,0.1314,0.1436,0.1585,0.1646,0.1736,0.1769,0.1693,0.1706,0.1715,0.1713,0.1723,0.1732,0.1786,0.1785,0.1785,0,0.0178,0.0226,0.0389,0.0444,0.0515,0.0602,0.067,0.0794,0.0861,0.1006,0.1047,0.1163,0.1262,0.1433,0.1554,0.1672,0.1709,0.1705,0.1727,0.1694,0.171,0.1705,0.1713,0.1696,0.1695,0.1694,0.1693,0,0.0126,0.0182,0.0272,0.0386,0.0464,0.056,0.066,0.0701,0.0847,0.0919,0.103,0.1107,0.1263,0.1379,0.1513,0.1596,0.1671,0.1687,0.1697,0.1662,0.1617,0.1643,0.1675,0.1684,0.1685,0.1686,0.1687,0.1687,0.007,0.0119,0.0242,0.0343,0.0433,0.0526,0.0588,0.0689,0.0783,0.0916,0.0987,0.1099,0.1228,0.1415,0.1497,0.1591,0.1615,0.1629,0.1633,0.1634,0.1626,0.1604,0.1617,0.1617,0.1618,0.1618,0.1618,0,0.0022,0.0109,0.0201,0.0338,0.042,0.0484,0.0601,0.0666,0.0762,0.0874,0.0971,0.1104,0.1221,0.1354,0.148,0.153,0.1568,0.1559,0.1556,0.1575,0.1596,0.1575,0.1527,0.1527,0.1527,0.1527,0.1527,0.1527,0.0007,0.0095,0.0167,0.0304,0.0392,0.05,0.0562,0.0652,0.0743,0.0886,0.0982,0.1068,0.1192,0.133,0.1442,0.1479,0.1521,0.1502,0.1549,0.1565,0.1573,0.158,0.156,0.151,0.151,0.152,0.152,0.152]},{"header":{"parameterUnit":"m.s-1","parameterCategory":1,"la1":30.2991,"la2":30.254,"lo1":-89.0895,"lo2":-89.0444,"dy":0.0017,"dx":0.0017,"nx":28,"ny":28,"refTime":"2025-07-22T09:00:00:Z","depth":0,"parameterNumber":3,"parameterNumberName":"V-component_of_WINDS"},"data":[0,0,0,0,0,0,0,0,0,0,0,0,0,0,0,0,0,0,0,0,0,0,0,0,0,0,0,0,0,0,0,0,0,0,0,0,0,0,0,0,0,0,0,0,0,0,0,0,0,0,0,0,0,0,0,0,0,0,4.1991,4.1988,0,4.1702,4.1699,4.1696,4.1409,4.1405,4.1401,4.1398,4.1092,4.1088,4.1083,0,0,0,0,0,0,0,0,0,0,0,0,0,4.2285,4.2282,4.1991,4.1988,4.1984,4.1703,4.1699,4.1695,4.1409,4.1405,4.14,4.1396,4.1094,4.1088,4.1083,0,0,0,0,0,0,0,0,0,0,0,0,0,4.2093,4.228,4.1992,4.1808,4.1789,4.1704,4.1699,4.1694,4.141,4.1405,4.1399,4.1394,4.1095,4.1089,4.1082,4.1152,0,0,4.1061,4.1058,0,0,0,0,0,0,0,0,4.2105,4.2083,4.1839,4.182,4.1799,4.1586,4.169,4.1512,4.1412,4.1554,4.1398,4.1391,4.126,4.124,4.1197,4.1138,4.1125,4.106,4.1056,4.1053,4.1051,0,0,0,0,0,0,0,4.2118,4.2093,4.1876,4.1835,4.1811,4.1736,4.1703,4.1655,4.1442,4.1541,4.1519,4.149,4.1248,4.1205,4.1188,4.112,4.106,4.1054,4.105,4.1047,4.1099,4.1104,0,0,0,0,0,0,4.2161,4.2107,4.1885,4.1868,4.1941,4.1736,4.1698,4.166,4.1442,4.1403,4.1495,4.1477,4.1219,4.1197,4.1176,4.124,4.1053,4.1046,4.1042,4.1094,4.11,4.1106,0,0,0,0,0,0,4.2168,4.2144,4.1897,4.1981,4.1944,4.1737,4.1696,4.1657,4.1613,4.1407,4.1366,4.149,4.1214,4.1186,4.116,4.1226,4.1043,4.1037,4.1087,4.1096,4.1103,4.1373,0,0,0,0,0,0,4.2178,4.2148,4.2175,4.1984,4.1941,4.189,4.17,4.1655,4.1603,4.1578,4.1392,4.1356,4.1207,4.1172,4.1153,4.1213,4.1032,4.108,4.1091,4.1101,4.1357,4.139,4.1418,0,0,0,0,0,4.219,4.2261,4.2178,4.2153,4.1971,4.1894,4.1869,4.17,4.161,4.1633,4.15,4.1361,4.1224,4.1172,4.1148,4.1207,4.1075,4.1088,4.11,4.1344,4.1383,4.1417,0,0,0,0,0,0,4.2462,4.2233,4.2138,4.2151,4.2045,4.1846,4.187,4.1748,4.1662,4.1641,4.1432,4.1393,4.139,4.1295,4.1243,4.1262,4.1129,4.1138,4.1323,4.1359,4.1388,4.1409,4.1026,0,0,0,0,0,4.2525,4.2486,4.2285,4.2316,4.2268,4.208,4.204,4.1919,4.1799,4.1752,4.1617,4.1503,4.1432,4.1391,4.1315,4.1344,4.1296,4.1372,4.1403,4.1428,4.1437,4.144,4.1471,4.1147,4.1147,4.1147,0,0,4.2652,4.2522,4.2509,4.2368,4.2271,4.2231,4.2043,4.2009,4.1976,4.1745,4.1712,4.161,4.1468,4.147,4.1463,4.1391,4.1516,4.1444,4.1466,4.146,4.1456,4.1487,4.1515,4.1156,4.1154,4.1153,0,0,4.2862,4.2762,4.2774,4.2682,4.254,4.2414,4.2418,4.2238,4.2161,4.2126,4.1951,4.1908,4.1793,4.1698,4.1636,4.1811,4.1678,4.1793,4.1948,4.1954,4.198,4.2001,4.206,4.2084,4.1802,4.1803,4.1803,0,4.3036,4.2972,4.2796,4.2772,4.2714,4.2507,4.2516,4.2434,4.2274,4.2236,4.2159,4.201,4.19,4.1874,4.1917,4.1875,4.1868,4.1811,4.1991,4.2011,4.2028,4.2081,4.2104,4.1818,4.1816,4.1814,4.1813,0,4.3192,4.3151,4.3178,4.3031,4.2975,4.2969,4.2788,4.2753,4.2637,4.2519,4.2484,4.2346,4.2237,4.2223,4.2109,4.218,4.214,4.2031,4.1892,4.2076,4.2123,4.2142,4.1838,4.1833,4.1829,4.1825,0,0,4.3563,4.332,4.3333,4.3262,4.309,4.3052,4.3036,4.2933,4.2905,4.2802,4.2778,4.2687,4.2584,4.2513,4.2387,4.2393,4.2536,4.2281,4.2274,4.233,4.2601,4.2682,4.2709,4.2449,4.2453,4.2455,4.2612,0,4.374,4.37,4.3541,4.3546,4.3503,4.3307,4.3291,4.3182,4.3072,4.3016,4.2891,4.2829,4.27,4.2655,4.2653,4.252,4.2587,4.2507,4.2421,4.242,4.2459,4.2734,4.2819,4.2974,4.2629,4.2632,4.2635,0,4.3941,4.3854,4.3857,4.3684,4.366,4.365,4.3541,4.3493,4.3364,4.3282,4.3205,4.3064,4.3031,4.2906,4.2855,4.2804,4.2759,4.2688,4.269,4.2672,4.2536,4.2719,4.3019,4.3041,4.2662,4.266,4.2658,0,4.4207,4.4089,4.4075,4.4021,4.3822,4.3818,4.3734,4.36,4.3548,4.3453,4.3416,4.3318,4.3264,4.3189,4.3024,4.2949,4.299,4.2852,4.2917,4.2921,4.293,4.2931,4.3224,4.2911,4.291,4.291,4.291,0,4.4419,4.4427,4.4191,4.4182,4.4184,4.4001,4.4007,4.3903,4.3786,4.375,4.3574,4.3543,4.333,4.3274,4.3145,4.3119,4.3097,4.3026,4.2991,4.304,4.3048,4.3004,4.2987,4.2916,4.2915,4.2913,4.2912,0,4.4714,4.4557,4.4527,4.4342,4.4295,4.4305,4.4143,4.4125,4.4005,4.3962,4.3941,4.3751,4.3675,4.3505,4.3383,4.3296,4.3302,4.3241,4.3346,4.3323,4.3396,4.339,4.3667,4.3692,4.3369,4.3373,4.3376,0,4.4857,4.4859,4.4675,4.464,4.4564,4.451,4.4457,4.4276,4.4227,4.4081,4.4079,4.3991,4.391,4.3798,4.3646,4.3552,4.3484,4.3588,4.3468,4.3516,4.348,4.348,4.3477,4.3613,4.3617,4.3621,4.3624,0,4.5127,4.505,4.4982,4.4888,4.483,4.4746,4.4651,4.4632,4.4427,4.438,4.4303,4.4241,4.4118,4.4031,4.3913,4.3821,4.3687,4.3664,4.3673,4.372,4.3779,4.3744,4.3414,4.3657,4.3654,4.3651,4.3649,4.3648,4.5346,4.5338,4.5208,4.5137,4.5048,4.4965,4.4938,4.4816,4.4749,4.4637,4.4534,4.4466,4.4334,4.4163,4.408,4.4021,4.3954,4.3969,4.3971,4.3976,4.3996,4.3794,4.4,4.3998,4.3997,4.3996,4.3995,0,4.5603,4.551,4.5448,4.5323,4.5267,4.5152,4.5042,4.5001,4.4945,4.4835,4.4761,4.467,4.4585,4.4428,4.4328,4.4311,4.4246,4.429,4.4287,4.4267,4.4064,4.4064,4.4344,4.4344,4.4343,4.4343,4.4343,4.4343,4.573,4.5709,4.5617,4.5549,4.5454,4.5389,4.5335,4.5256,4.5167,4.5076,4.5005,4.4906,4.4775,4.4664,4.458,4.4535,4.4504,4.4567,4.4503,4.4315,4.4282,4.425,4.4249,4.4563,4.4563,4.4709,4.4711,4.4712]}]]